Flag for Monaco Weather past 2 weeks in Monaco, Monaco

Now
45 °F

Sunny.


Feels Like: 39 °F
Forecast: 37 / 49 °F
Wind: 10 mph from Northwest

Location: Nice Airport

Current Time: Jan 27, 2015 at 10:02:39 AM

Latest Report: Jan 27, 2015 at 9:41 AM


Visibility: 10 mi

Pressure: 29.98 "Hg

Humidity: 46%

Dew point: 25 °F

Location of MonacoLocation

Historic Weather in Monaco — Graph

°F

Monaco temperature yesterday

Maximum temperature yesterday: 54 °F (at 1:30 PM)
Minimum temperature yesterday: 41 °F (at 3:30 AM)
Average temperature yesterday: 46 °F

Past Weeks' High & Low Weather Summary

 TemperatureHumidityPressure
High63 °F (Jan 14, 3:13 PM)94% (Jan 17, 2:30 AM)30.42 "Hg (Jan 17, 2:30 AM)
Low39 °F (Jan 18, 2:00 AM)26% (Jan 26, 1:30 PM)29.65 "Hg (Jan 21, 4:00 PM)
Average49 °F59%29.96 "Hg
* Reported Jan 12 9:00 AM — Jan 27 9:00 AM, Monaco, Weather by CustomWeather, © 2014

Note: Actual official high and low records may vary slightly from our data, if they occured in-between our weather recording intervals... More about our weather records

Advertising

Monaco weather history for previous 24 hours

 ConditionsComfort  
Time TempWeatherWind HumidityBarometerVisibility
9:00 AM
Jan 27
41 °FSunny.12 mph53%29.98 "Hg10 mi
8:30 AM41 °FSunny.10 mph53%29.98 "Hg10 mi
8:00 AM41 °FPartly sunny.9 mph53%29.98 "HgN/A
7:30 AM43 °FPassing clouds.9 mph49%29.98 "HgN/A
7:00 AM41 °FClear.9 mph53%29.98 "Hg10 mi
6:30 AM41 °FClear.9 mph53%29.98 "Hg10 mi
6:00 AM43 °FClear.12 mph49%30.01 "Hg10 mi
5:30 AM43 °FClear.12 mph49%30.01 "Hg10 mi
5:00 AM43 °FClear.13 mph49%30.04 "Hg10 mi
4:30 AM43 °FClear.10 mph49%30.04 "Hg10 mi
4:00 AM43 °FClear.9 mph49%30.04 "Hg10 mi
3:30 AM43 °FClear.10 mph49%30.07 "Hg10 mi
3:00 AM43 °FClear.8 mph46%30.07 "Hg10 mi
2:30 AM43 °FClear.8 mph49%30.07 "Hg10 mi
2:00 AM43 °FClear.10 mph49%30.09 "Hg10 mi
1:30 AM43 °FClear.9 mph46%30.09 "Hg10 mi
1:00 AM43 °FClear.8 mph46%30.09 "Hg10 mi
12:30 AM43 °FClear.8 mph49%30.09 "Hg10 mi
12:00 AM43 °FClear.8 mph49%30.12 "Hg10 mi
11:30 PM
Jan 26
43 °FClear.7 mph49%30.12 "Hg10 mi
11:00 PM43 °FClear.7 mph49%30.12 "Hg10 mi
10:30 PM43 °FClear.8 mph49%30.12 "Hg10 mi
10:00 PM41 °FClear.9 mph57%30.15 "Hg10 mi
9:30 PM43 °FClear.9 mph53%30.15 "Hg10 mi
9:00 PM43 °FClear.9 mph53%30.15 "Hg10 mi
8:30 PM43 °FClear.9 mph53%30.15 "Hg10 mi
8:00 PM45 °FClear.8 mph49%30.15 "Hg10 mi
7:30 PM50 °FClear.8 mph47%30.15 "Hg10 mi
7:00 PM50 °FClear.10 mph43%30.15 "Hg10 mi
6:30 PM50 °FClear.10 mph37%30.15 "Hg10 mi
6:00 PM50 °FClear.10 mph37%30.15 "Hg10 mi
5:30 PM50 °FSunny.10 mph40%30.15 "Hg10 mi
5:00 PM52 °FSunny.8 mph35%30.15 "Hg10 mi
4:30 PM52 °FSunny.7 mph35%30.15 "Hg10 mi
4:00 PM54 °FSunny.6 mph33%30.15 "Hg10 mi
3:30 PM54 °FSunny.7 mph33%30.15 "Hg10 mi
3:00 PM54 °FBroken clouds.7 mph28%30.15 "HgN/A
2:30 PM54 °FBroken clouds.5 mph28%30.15 "HgN/A
2:00 PM54 °FPartly sunny.5 mph33%30.18 "HgN/A
1:30 PM54 °FPartly sunny.6 mph26%30.18 "HgN/A
1:00 PM52 °FPartly sunny.8 mph30%30.18 "HgN/A
12:30 PM50 °FPartly sunny.9 mph32%30.18 "HgN/A
12:00 PM50 °FPartly sunny.12 mph32%30.21 "HgN/A
11:30 AM50 °FPartly sunny.12 mph32%30.21 "HgN/A
11:00 AM52 °FPartly sunny.9 mph30%30.21 "HgN/A
10:30 AM48 °FPartly sunny.9 mph34%30.18 "HgN/A
10:00 AM48 °FPartly sunny.6 mph29%30.18 "HgN/A
Weather by CustomWeather, © 2014

See weather overviewHow to use our weather pages